Simultaneous Nadir Overpasses (SNOs) Predictions

Prediction of SNOs between AQUA and METOP-A Satellite Orbit:

Table of predicted SNOs for the next 14.0 days since TLE Epoch: 1/4/2013
Index Date (AQUA) Time (AQUA) Lat,Lon (AQUA) SZA (AQUA ) Date (METOP-A) Time (METOP-A) Lat,Lon (METOP-A) SZA (METOP-A ) Distance(km) Time Diff (sec)
1 01/06/2013 22:06:44 73.83,-157.54 96.25 01/06/2013 22:06:09 73.84,-157.61 96.26 2.30 35
2 01/06/2013 22:56:11 -73.90, 9.95 83.69 01/06/2013 22:56:49 -73.91, 9.88 83.68 2.09 38
3 01/09/2013 17:40:57 73.86, -91.15 95.91 01/09/2013 17:40:27 73.88, -91.11 95.93 2.41 30
4 01/09/2013 18:30:24 -73.93, 76.34 84.03 01/09/2013 18:31:07 -73.95, 76.40 84.02 3.13 43
5 01/12/2013 13:15:09 73.85, -24.68 95.46 01/12/2013 13:14:46 73.87, -24.70 95.49 2.69 23
6 01/12/2013 14:04:37 -73.96, 142.71 84.42 01/12/2013 14:05:26 -73.95, 142.81 84.45 3.67 49
7 01/15/2013 07:59:44 -73.39,-124.88 85.51 01/15/2013 07:58:35 -73.34,-126.86 85.48 63.38 69
8 01/15/2013 08:49:20 73.85, 41.77 94.98 01/15/2013 08:49:04 73.87, 41.72 95.01 2.90 16
9 01/15/2013 09:38:48 -73.97,-150.84 84.91 01/15/2013 09:39:44 -73.96,-150.76 84.93 2.78 56
10 01/18/2013 03:33:58 -73.67, -58.99 85.76 01/18/2013 03:32:46 -73.60, -59.84 85.78 27.48 72
11 01/18/2013 04:23:29 73.87, 108.20 94.46 01/18/2013 04:23:20 73.88, 108.16 94.48 1.80 9
12 01/18/2013 05:12:57 -73.98, -84.41 85.43 01/18/2013 05:14:00 -73.97, -84.30 85.46 3.51 63




NCC Satellite Simultaneous Nadir Overpasses (SNOs) Prediction Service
